Total_Precipitation_Accumulation
1.57 1.65 1.62 1.57 1.54 1.54 1.45 1.34 1.29 1.22 1.13 1.07 1.00 0.97 0.98 1.01 1.00 1.02 1.00 0.98 0.94 0.90 0.89 0.90 0.93 0.96 1.01 1.02 1.06 1.20 1.42 1.56 1.59 1.32 1.18 1.24 1.37 1.33 1.38 1.34 1.24 1.20 1.27
1.30 1.40 1.43 1.35 1.22 1.18 1.16 1.12 1.06 1.04 1.00 0.98 0.90 0.83 0.79 0.77 0.77 0.78 0.80 0.83 0.85 0.81 0.84 0.88 0.89 0.90 0.91 0.96 1.03 1.11 1.26 1.45 1.61 1.54 1.32 1.32 1.38 1.41 1.46 1.46 1.28 1.14 1.19
1.11 1.13 1.16 1.12 1.03 0.98 0.98 1.00 0.96 0.93 0.88 0.82 0.79 0.78 0.70 0.68 0.65 0.63 0.66 0.72 0.76 0.74 0.77 0.82 0.87 0.98 0.96 0.98 1.05 1.08 1.18 1.30 1.54 1.62 1.47 1.44 1.51 1.55 1.66 1.55 1.39 1.35 1.13
0.93 0.95 0.96 0.97 0.97 0.93 0.86 0.84 0.85 0.85 0.84 0.81 0.81 0.73 0.65 0.58 0.56 0.55 0.56 0.60 0.63 0.68 0.75 0.81 0.86 0.99 1.07 1.10 1.09 1.10 1.13 1.26 1.42 1.59 1.56 1.54 1.59 1.67 1.72 1.69 1.55 1.39 1.25
0.93 0.90 0.91 0.96 0.98 0.96 0.93 0.88 0.84 0.80 0.77 0.77 0.78 0.74 0.67 0.59 0.53 0.53 0.53 0.56 0.65 0.71 0.72 0.74 0.78 0.88 0.98 0.97 0.90 0.92 1.05 1.26 1.35 1.52 1.59 1.55 1.55 1.66 1.66 1.50 1.43 1.35 1.22
1.02 0.99 0.98 0.97 0.93 0.91 0.89 0.86 0.83 0.79 0.76 0.72 0.71 0.71 0.66 0.53 0.54 0.53 0.50 0.56 0.62 0.67 0.69 0.68 0.66 0.65 0.65 0.68 0.74 0.79 0.91 1.17 1.49 1.69 1.67 1.60 1.47 1.45 1.49 1.45 1.46 1.47 1.41
1.16 1.07 1.01 0.94 0.85 0.82 0.77 0.75 0.78 0.78 0.72 0.66 0.64 0.66 0.64 0.56 0.53 0.48 0.48 0.53 0.63 0.68 0.71 0.71 0.58 0.50 0.59 0.66 0.72 0.76 0.89 1.06 1.35 1.69 1.78 1.57 1.50 1.46 1.51 1.50 1.55 1.61 1.49
1.13 1.04 0.95 0.87 0.80 0.80 0.80 0.79 0.77 0.75 0.69 0.67 0.67 0.67 0.65 0.54 0.51 0.47 0.47 0.52 0.62 0.64 0.65 0.68 0.70 0.66 0.63 0.69 0.76 0.85 0.99 1.13 1.24 1.34 1.63 1.46 1.25 1.24 1.33 1.39 1.49 1.52 1.43
1.11 0.94 0.84 0.78 0.73 0.71 0.72 0.72 0.71 0.70 0.67 0.63 0.61 0.62 0.67 0.63 0.56 0.49 0.44 0.51 0.58 0.59 0.57 0.58 0.58 0.61 0.67 0.80 0.93 1.14 1.26 1.38 1.32 1.45 1.61 1.56 1.39 1.29 1.19 1.26 1.48 1.54 1.49
0.88 0.76 0.73 0.73 0.67 0.62 0.62 0.63 0.63 0.65 0.64 0.59 0.56 0.58 0.62 0.60 0.47 0.40 0.39 0.46 0.54 0.59 0.62 0.62 0.55 0.52 0.63 0.78 1.03 1.33 1.46 1.53 1.39 1.49 1.74 1.79 1.61 1.57 1.53 1.43 1.55 1.61 1.56
0.74 0.66 0.69 0.67 0.58 0.53 0.57 0.60 0.59 0.56 0.56 0.54 0.54 0.55 0.52 0.43 0.37 0.32 0.32 0.35 0.44 0.53 0.60 0.68 0.66 0.59 0.65 0.85 1.07 1.26 1.42 1.45 1.48 1.55 1.58 1.61 1.69 1.71 1.67 1.60 1.57 1.57 1.55
0.69 0.65 0.68 0.66 0.47 0.41 0.50 0.53 0.53 0.57 0.55 0.51 0.51 0.50 0.42 0.39 0.30 0.27 0.27 0.28 0.29 0.44 0.62 0.67 0.68 0.65 0.69 0.90 1.08 1.32 1.53 1.60 1.58 1.60 1.46 1.38 1.35 1.37 1.43 1.40 1.35 1.32 1.30
0.65 0.66 0.64 0.59 0.49 0.42 0.46 0.49 0.51 0.55 0.52 0.45 0.46 0.46 0.38 0.38 0.32 0.23 0.23 0.24 0.26 0.34 0.49 0.58 0.63 0.66 0.81 1.12 1.29 1.45 1.62 1.73 1.75 1.61 1.42 1.31 1.17 1.10 1.09 1.16 1.16 1.16 1.10
0.65 0.64 0.62 0.57 0.48 0.41 0.42 0.41 0.43 0.46 0.46 0.42 0.42 0.43 0.40 0.38 0.32 0.27 0.28 0.30 0.31 0.36 0.50 0.64 0.75 0.81 1.00 1.31 1.52 1.70 1.75 1.66 1.49 1.41 1.32 1.25 1.10 1.03 1.05 0.98 1.00 1.05 1.05
0.62 0.56 0.52 0.46 0.44 0.43 0.37 0.27 0.27 0.29 0.28 0.32 0.37 0.36 0.33 0.30 0.22 0.23 0.25 0.25 0.28 0.31 0.44 0.65 0.83 0.97 1.18 1.40 1.57 1.63 1.61 1.50 1.39 1.20 1.13 1.16 1.14 1.06 1.02 0.94 0.91 0.93 1.01
0.59 0.55 0.48 0.41 0.40 0.37 0.39 0.31 0.21 0.19 0.18 0.17 0.19 0.20 0.20 0.22 0.20 0.21 0.23 0.25 0.28 0.34 0.45 0.66 0.80 0.90 1.10 1.34 1.47 1.44 1.34 1.26 1.17 1.07 1.02 0.99 0.97 0.94 0.92 0.88 0.81 0.80 0.88
0.47 0.45 0.42 0.38 0.37 0.34 0.36 0.39 0.37 0.25 0.18 0.17 0.17 0.17 0.20 0.22 0.21 0.21 0.24 0.28 0.31 0.37 0.47 0.67 0.79 0.89 1.07 1.22 1.27 1.25 1.21 1.11 1.03 0.98 0.95 0.87 0.81 0.79 0.75 0.73 0.72 0.75 0.72
0.28 0.27 0.28 0.32 0.33 0.33 0.31 0.31 0.32 0.34 0.35 0.31 0.23 0.20 0.18 0.18 0.18 0.18 0.22 0.26 0.32 0.37 0.51 0.69 0.82 0.89 0.97 1.04 1.10 1.15 1.14 1.04 0.95 0.92 0.92 0.86 0.80 0.74 0.67 0.65 0.65 0.62 0.62
0.21 0.23 0.23 0.25 0.29 0.29 0.26 0.27 0.27 0.30 0.33 0.34 0.31 0.25 0.21 0.21 0.22 0.24 0.27 0.31 0.39 0.47 0.57 0.69 0.76 0.82 0.85 0.85 0.90 0.97 0.98 0.96 0.89 0.85 0.84 0.82 0.77 0.70 0.61 0.55 0.52 0.42 0.45
0.16 0.13 0.14 0.16 0.19 0.21 0.19 0.21 0.22 0.25 0.29 0.31 0.31 0.28 0.27 0.33 0.36 0.37 0.34 0.32 0.38 0.47 0.55 0.63 0.68 0.73 0.71 0.71 0.72 0.76 0.79 0.80 0.76 0.74 0.72 0.71 0.64 0.57 0.53 0.48 0.45 0.43 0.44
0.12 0.09 0.08 0.09 0.11 0.12 0.12 0.12 0.15 0.19 0.24 0.29 0.27 0.24 0.32 0.38 0.43 0.42 0.41 0.40 0.42 0.47 0.51 0.53 0.56 0.58 0.57 0.57 0.57 0.59 0.63 0.66 0.67 0.68 0.66 0.61 0.53 0.48 0.44 0.41 0.37 0.34 0.33
0.08 0.07 0.08 0.09 0.09 0.08 0.09 0.10 0.14 0.16 0.19 0.23 0.26 0.26 0.34 0.37 0.42 0.45 0.47 0.48 0.48 0.48 0.46 0.46 0.46 0.47 0.48 0.48 0.46 0.48 0.50 0.54 0.60 0.65 0.65 0.60 0.49 0.42 0.37 0.33 0.33 0.33 0.33
0.07 0.07 0.10 0.11 0.09 0.08 0.09 0.11 0.13 0.14 0.15 0.18 0.21 0.25 0.31 0.39 0.44 0.49 0.50 0.49 0.49 0.47 0.42 0.41 0.42 0.44 0.43 0.40 0.39 0.43 0.46 0.50 0.55 0.63 0.67 0.62 0.50 0.42 0.35 0.33 0.35 0.36 0.34
0.08 0.10 0.12 0.13 0.10 0.09 0.09 0.10 0.11 0.13 0.15 0.16 0.18 0.22 0.26 0.35 0.42 0.49 0.53 0.51 0.50 0.48 0.45 0.43 0.42 0.42 0.38 0.34 0.32 0.31 0.32 0.37 0.46 0.54 0.58 0.57 0.47 0.37 0.31 0.30 0.31 0.31 0.32
0.10 0.10 0.09 0.10 0.10 0.11 0.10 0.10 0.10 0.12 0.12 0.11 0.13 0.16 0.19 0.24 0.31 0.40 0.48 0.52 0.54 0.54 0.50 0.48 0.47 0.44 0.38 0.31 0.25 0.23 0.28 0.36 0.42 0.47 0.51 0.48 0.38 0.32 0.29 0.29 0.28 0.27 0.28
0.08 0.09 0.08 0.08 0.07 0.08 0.10 0.10 0.09 0.09 0.10 0.10 0.10 0.12 0.14 0.17 0.22 0.27 0.34 0.40 0.46 0.52 0.57 0.58 0.55 0.45 0.36 0.30 0.27 0.28 0.29 0.29 0.31 0.35 0.39 0.39 0.31 0.29 0.30 0.28 0.24 0.23 0.26